,,,PA_Meas_PMT16A,,PR_Meas_QMR101_102,,RH_Meas_QMH101,,SR_Meas_QMS101,,TA_Meas_QMH101,,GenWind,,GenWind,
date,time,status,PA,status,PR,status,RH,status,SR,status,TA,status,DirAvg,status,SpdAvg,
2010-10-24, 00:00:04,VALID,1000.01,VALID,0,VALID,89.732,VALID,0,VALID,23.389,VALID,105,VALID,0.856641,
2010-10-24, 00:01:04,VALID,999.966,VALID,0,VALID,89.7091,VALID,0,VALID,23.389,VALID,105,VALID,0.774609,
2010-10-24, 00:02:04,VALID,999.954,VALID,0,VALID,89.8083,VALID,0,VALID,23.389,VALID,105,VALID,0.858984,
2010-10-24, 00:03:04,VALID,999.895,VALID,0,VALID,89.7549,VALID,0,VALID,23.389,VALID,105,VALID,0.762109,
2010-10-24, 00:04:04,VALID,999.908,VALID,0,VALID,89.8998,VALID,0,VALID,23.4085,VALID,105,VALID,0.760938,
2010-10-24, 00:05:04,VALID,999.902,VALID,0,VALID,89.9151,VALID,0,VALID,23.4085,VALID,94,VALID,0.762109,
2010-10-24, 00:06:04,VALID,999.889,VALID,0,VALID,89.9074,VALID,0,VALID,23.4085,VALID,94,VALID,0.842969,
2010-10-24, 00:07:04,VALID,999.866,VALID,0,VALID,89.9151,VALID,0,VALID,23.4085,VALID,94,VALID,0.541016,
2010-10-24, 00:08:04,VALID,999.846,VALID,0,VALID,89.9303,VALID,0,VALID,23.4085,VALID,94,VALID,0.448047,
2010-10-24, 00:09:04,VALID,999.829,VALID,0,VALID,89.9685,VALID,0,VALID,23.4085,VALID,94,VALID,0.616016,
2010-10-24, 00:10:04,VALID,999.787,VALID,0,VALID,90.0829,VALID,0,VALID,23.4085,VALID,103,VALID,0.753125,
2010-10-24, 00:11:04,VALID,999.766,VALID,0,VALID,90.0524,VALID,0,VALID,23.4085,VALID,103,VALID,0.539844,
2010-10-24, 00:12:04,VALID,999.746,VALID,0,VALID,90.0982,VALID,0,VALID,23.389,VALID,103,VALID,0.814453,
2010-10-24, 00:13:04,VALID,999.742,VALID,0,VALID,90.1745,VALID,0,VALID,23.389,VALID,105,VALID,0.862891,
2010-10-24, 00:14:04,VALID,999.707,VALID,0,VALID,90.2355,VALID,0,VALID,23.4085,VALID,106,VALID,1.18594,
2010-10-24, 00:15:04,VALID,999.67,VALID,0,VALID,90.2508,VALID,0,VALID,23.389,VALID,106,VALID,0.636719,
2010-10-24, 00:16:04,VALID,999.642,VALID,0,VALID,90.2126,VALID,0,VALID,23.4085,VALID,106,VALID,0.739453,
2010-10-24, 00:17:04,VALID,999.613,VALID,0,VALID,90.144,VALID,0,VALID,23.3695,VALID,110,VALID,0.556641,
2010-10-24, 00:18:04,VALID,999.554,VALID,0,VALID,90.1897,VALID,0,VALID,23.3695,VALID,110,VALID,0.508203,
2010-10-24, 00:19:04,VALID,999.523,VALID,0,VALID,90.2889,VALID,0,VALID,23.35,VALID,123,VALID,0.735937,
2010-10-24, 00:20:04,VALID,999.515,VALID,0,VALID,90.3805,VALID,0,VALID,23.3092,VALID,120,VALID,0.628125,
2010-10-24, 00:21:04,VALID,999.54,VALID,0,VALID,90.5407,VALID,0,VALID,23.35,VALID,120,VALID,0.860156,
2010-10-24, 00:22:04,VALID,999.536,VALID,0,VALID,90.5788,VALID,0,VALID,23.311,VALID,120,VALID,0.368359,
2010-10-24, 00:23:04,VALID,999.503,VALID,0,VALID,90.6628,VALID,0,VALID,23.311,VALID,120,VALID,0.284766,
2010-10-24, 00:24:04,VALID,999.513,VALID,0,VALID,90.7925,VALID,0,VALID,23.311,VALID,120,VALID,0.49375,
2010-10-24, 00:25:04,VALID,999.494,VALID,0,VALID,90.8764,VALID,0,VALID,23.311,VALID,120,VALID,0.667969,
2010-10-24, 00:26:04,VALID,999.527,VALID,0,VALID,90.9451,VALID,0,VALID,23.311,VALID,120,VALID,0.442187,
2010-10-24, 00:27:04,VALID,999.538,VALID,0,VALID,90.9527,VALID,0,VALID,23.311,VALID,120,VALID,0.251953,
2010-10-24, 00:28:04,VALID,999.521,VALID,0,VALID,90.9832,VALID,0,VALID,23.2915,VALID,120,VALID,0.214453,
2010-10-24, 00:29:04,VALID,999.492,VALID,0,VALID,91.0443,VALID,0,VALID,23.2915,VALID,120,VALID,0.260938,
2010-10-24, 00:30:04,VALID,999.489,VALID,0,VALID,91.0824,VALID,0,VALID,23.311,VALID,120,VALID,0.320313,
2010-10-24, 00:31:04,VALID,999.444,VALID,0,VALID,91.0214,VALID,0,VALID,23.2915,VALID,120,VALID,0.318359,
2010-10-24, 00:32:04,VALID,999.422,VALID,0,VALID,90.9298,VALID,0,VALID,23.2507,VALID,120,VALID,0.127344,
2010-10-24, 00:33:04,VALID,999.421,VALID,0,VALID,90.9222,VALID,0,VALID,23.2329,VALID,120,VALID,0,
2010-10-24, 00:34:04,VALID,999.392,VALID,0,VALID,90.9909,VALID,0,VALID,23.2329,VALID,120,VALID,0.0144531,
2010-10-24, 00:35:04,VALID,999.38,VALID,0,VALID,91.1129,VALID,0,VALID,23.2134,VALID,120,VALID,0.165625,
2010-10-24, 00:36:04,VALID,999.373,VALID,0,VALID,91.1587,VALID,0,VALID,23.2134,VALID,120,VALID,0.00117188,
2010-10-24, 00:37:04,VALID,999.36,VALID,0,VALID,91.2045,VALID,0,VALID,23.1939,VALID,120,VALID,0,
2010-10-24, 00:38:04,VALID,999.351,VALID,0,VALID,91.2808,VALID,0,VALID,23.1744,VALID,120,VALID,0,
2010-10-24, 00:39:04,VALID,999.334,VALID,0,VALID,91.3723,VALID,0,VALID,23.1744,VALID,120,VALID,0.00976563,
2010-10-24, 00:40:04,VALID,999.347,VALID,0,VALID,91.4181,VALID,0,VALID,23.1744,VALID,120,VALID,0,
2010-10-24, 00:41:04,VALID,999.313,VALID,0,VALID,91.441,VALID,0,VALID,23.1549,VALID,120,VALID,0,
2010-10-24, 00:42:04,VALID,999.316,VALID,0,VALID,91.4791,VALID,0,VALID,23.1549,VALID,120,VALID,0,
2010-10-24, 00:43:04,VALID,999.269,VALID,0,VALID,91.5249,VALID,0,VALID,23.1549,VALID,120,VALID,0,
2010-10-24, 00:44:04,VALID,999.265,VALID,0,VALID,91.5631,VALID,0,VALID,23.1549,VALID,138,VALID,0.439453,
2010-10-24, 00:45:04,VALID,999.252,VALID,0,VALID,91.5326,VALID,0,VALID,23.1549,VALID,155,VALID,0.394141,
2010-10-24, 00:46:04,VALID,999.211,VALID,0,VALID,91.441,VALID,0,VALID,23.1549,VALID,155,VALID,0.264062,
2010-10-24, 00:47:04,VALID,999.221,VALID,0,VALID,91.2197,VALID,0,VALID,23.1354,VALID,152,VALID,0.511328,
2010-10-24, 00:48:04,VALID,999.154,VALID,0,VALID,90.8688,VALID,0,VALID,23.1354,VALID,109,VALID,0.311328,
2010-10-24, 00:49:04,VALID,999.162,VALID,0,VALID,90.3957,VALID,0,VALID,23.1549,VALID,140,VALID,0.641797,
2010-10-24, 00:50:04,VALID,999.172,VALID,0,VALID,89.9914,VALID,0,VALID,23.1939,VALID,154,VALID,0.232031,
2010-10-24, 00:51:04,VALID,999.131,VALID,0,VALID,89.6786,VALID,0,VALID,23.2134,VALID,154,VALID,0.158984,
2010-10-24, 00:52:04,VALID,999.107,VALID,0,VALID,89.4726,VALID,0,VALID,23.2329,VALID,154,VALID,0.378906,
2010-10-24, 00:53:04,VALID,999.093,VALID,0,VALID,89.32,VALID,0,VALID,23.2932,VALID,154,VALID,0.308203,
2010-10-24, 00:54:04,VALID,999.081,VALID,0,VALID,89.0987,VALID,0,VALID,23.311,VALID,154,VALID,0.178125,
2010-10-24, 00:55:04,VALID,999.031,VALID,0,VALID,88.8774,VALID,0,VALID,23.3305,VALID,154,VALID,0.187109,
2010-10-24, 00:56:04,VALID,999.027,VALID,0,VALID,88.6714,VALID,0,VALID,23.35,VALID,154,VALID,0.244531,
2010-10-24, 00:57:04,VALID,998.979,VALID,0,VALID,88.5799,VALID,0,VALID,23.389,VALID,160,VALID,0.661719,
2010-10-24, 00:58:04,VALID,998.948,VALID,0,VALID,88.3815,VALID,0,VALID,23.428,VALID,164,VALID,0.580078,
2010-10-24, 00:59:04,VALID,998.934,VALID,0,VALID,88.2518,VALID,0,VALID,23.4671,VALID,164,VALID,0.634375,
2010-10-24, 01:00:04,VALID,998.909,VALID,0,VALID,87.9237,VALID,0,VALID,23.4866,VALID,164,VALID,0.611328,
2010-10-24, 01:01:04,VALID,998.914,VALID,0,VALID,87.8474,VALID,0,VALID,23.4866,VALID,164,VALID,0.601172,
2010-10-24, 01:02:04,VALID,998.885,VALID,0,VALID,87.7864,VALID,0,VALID,23.5061,VALID,164,VALID,0.526172,
2010-10-24, 01:03:04,VALID,998.91,VALID,0,VALID,87.7483,VALID,0,VALID,23.5256,VALID,190,VALID,0.973437,
2010-10-24, 01:04:04,VALID,998.881,VALID,0,VALID,87.4736,VALID,0,VALID,23.5646,VALID,185,VALID,1.06133,
2010-10-24, 01:05:04,VALID,998.869,VALID,0,VALID,87.1303,VALID,0,VALID,23.5841,VALID,175,VALID,0.989453,
2010-10-24, 01:06:04,VALID,998.848,VALID,0,VALID,86.848,VALID,0,VALID,23.6232,VALID,158,VALID,0.865234,
2010-10-24, 01:07:04,VALID,998.815,VALID,0,VALID,86.7869,VALID,0,VALID,23.6232,VALID,141,VALID,0.928906,
2010-10-24, 01:08:04,VALID,998.797,VALID,0,VALID,86.558,VALID,0,VALID,23.6622,VALID,135,VALID,0.9375,
2010-10-24, 01:09:04,VALID,998.777,VALID,0,VALID,86.2986,VALID,0,VALID,23.7012,VALID,134,VALID,0.862891,
2010-10-24, 01:10:04,VALID,998.794,VALID,0,VALID,86.2147,VALID,0,VALID,23.7012,VALID,134,VALID,0.860547,
2010-10-24, 01:11:04,VALID,998.747,VALID,0,VALID,86.3368,VALID,0,VALID,23.6817,VALID,134,VALID,0.819922,
2010-10-24, 01:12:04,VALID,998.779,VALID,0,VALID,86.4589,VALID,0,VALID,23.6427,VALID,134,VALID,0.766406,
2010-10-24, 01:13:04,VALID,998.732,VALID,0,VALID,86.8937,VALID,0,VALID,23.6054,VALID,134,VALID,0.663672,
2010-10-24, 01:14:04,VALID,998.73,VALID,0,VALID,86.9929,VALID,0,VALID,23.5451,VALID,132,VALID,0.689844,
2010-10-24, 01:15:04,VALID,998.71,VALID,0,VALID,87.2752,VALID,0,VALID,23.5274,VALID,129,VALID,0.719141,
2010-10-24, 01:16:04,VALID,998.709,VALID,0,VALID,87.527,VALID,0,VALID,23.4671,VALID,129,VALID,0.665234,
2010-10-24, 01:17:04,VALID,998.696,VALID,0,VALID,87.6262,VALID,0,VALID,23.4475,VALID,110,VALID,0.763672,
2010-10-24, 01:18:04,VALID,998.702,VALID,0,VALID,87.8322,VALID,0,VALID,23.428,VALID,95,VALID,0.789453,
2010-10-24, 01:19:04,VALID,998.693,VALID,0,VALID,87.9543,VALID,0,VALID,23.4298,VALID,95,VALID,0.783984,
2010-10-24, 01:20:04,VALID,998.676,VALID,0,VALID,88.0458,VALID,0,VALID,23.4085,VALID,95,VALID,0.716797,
2010-10-24, 01:21:04,VALID,998.677,VALID,0,VALID,87.8932,VALID,0,VALID,23.428,VALID,95,VALID,0.857422,
2010-10-24, 01:22:04,VALID,998.699,VALID,0,VALID,87.8703,VALID,0,VALID,23.4085,VALID,95,VALID,0.799219,
2010-10-24, 01:23:04,VALID,998.701,VALID,0,VALID,88.1145,VALID,0,VALID,23.389,VALID,95,VALID,0.724609,
2010-10-24, 01:24:04,VALID,998.698,VALID,0,VALID,88.2366,VALID,0,VALID,23.3305,VALID,95,VALID,0.609375,
2010-10-24, 01:25:04,VALID,998.705,VALID,0,VALID,88.4197,VALID,0,VALID,23.311,VALID,95,VALID,0.619531,
2010-10-24, 01:26:04,VALID,998.688,VALID,0,VALID,88.6486,VALID,0,VALID,23.2719,VALID,95,VALID,0.555469,
2010-10-24, 01:27:04,VALID,998.681,VALID,0,VALID,88.908,VALID,0,VALID,23.2737,VALID,95,VALID,0.554297,
2010-10-24, 01:28:04,VALID,998.707,VALID,0,VALID,89.0606,VALID,0,VALID,23.2737,VALID,95,VALID,0.602344,
2010-10-24, 01:29:04,VALID,998.679,VALID,0,VALID,89.1445,VALID,0,VALID,23.2329,VALID,95,VALID,0.641016,
2010-10-24, 01:30:04,VALID,998.677,VALID,0,VALID,89.236,VALID,0,VALID,23.2524,VALID,106,VALID,0.703516,
2010-10-24, 01:31:04,VALID,998.655,VALID,0,VALID,89.3276,VALID,0,VALID,23.2932,VALID,106,VALID,0.676562,
2010-10-24, 01:32:04,VALID,998.629,VALID,0,VALID,89.3276,VALID,0,VALID,23.2719,VALID,106,VALID,0.551562,
2010-10-24, 01:33:04,VALID,998.591,VALID,0,VALID,89.442,VALID,0,VALID,23.2932,VALID,106,VALID,0.396875,
2010-10-24, 01:34:04,VALID,998.59,VALID,0,VALID,89.5641,VALID,0,VALID,23.2915,VALID,106,VALID,0.255859,
2010-10-24, 01:35:04,VALID,998.574,VALID,0,VALID,89.648,VALID,0,VALID,23.2932,VALID,106,VALID,0.128906,
2010-10-24, 01:36:04,VALID,998.569,VALID,0,VALID,89.7701,VALID,0,VALID,23.2719,VALID,106,VALID,0.0175781,
2010-10-24, 01:37:04,VALID,998.567,VALID,0,VALID,89.9303,VALID,0,VALID,23.2524,VALID,106,VALID,0,
2010-10-24, 01:38:04,VALID,998.554,VALID,0,VALID,90.0906,VALID,0,VALID,23.2524,VALID,106,VALID,0,
2010-10-24, 01:39:05,VALID,998.543,VALID,0,VALID,90.2508,VALID,0,VALID,23.2524,VALID,106,VALID,0.142969,
2010-10-24, 01:40:05,VALID,998.549,VALID,0,VALID,90.472,VALID,0,VALID,23.2737,VALID,106,VALID,0.316406,
2010-10-24, 01:41:05,VALID,998.55,VALID,0,VALID,90.6399,VALID,0,VALID,23.2524,VALID,106,VALID,0.461328,
2010-10-24, 01:42:05,VALID,998.581,VALID,0,VALID,90.5331,VALID,0,VALID,23.2524,VALID,109,VALID,0.735937,
2010-10-24, 01:43:05,VALID,998.536,VALID,0,VALID,90.266,VALID,0,VALID,23.2329,VALID,131,VALID,0.875781,
2010-10-24, 01:44:05,VALID,998.537,VALID,0,VALID,89.9914,VALID,0,VALID,23.2524,VALID,131,VALID,0.675391,
2010-10-24, 01:45:05,VALID,998.528,VALID,0,VALID,89.793,VALID,0,VALID,23.2524,VALID,131,VALID,0.566016,
2010-10-24, 01:46:05,VALID,998.519,VALID,0,VALID,89.7625,VALID,0,VALID,23.2737,VALID,131,VALID,0.656641,
2010-10-24, 01:47:05,VALID,998.518,VALID,0,VALID,89.8617,VALID,0,VALID,23.2329,VALID,131,VALID,0.650781,
2010-10-24, 01:48:05,VALID,998.504,VALID,0,VALID,89.7091,VALID,0,VALID,23.2329,VALID,144,VALID,0.773828,
2010-10-24, 01:49:05,VALID,998.493,VALID,0,VALID,89.526,VALID,0,VALID,23.2134,VALID,145,VALID,0.902344,
2010-10-24, 01:50:05,VALID,998.5,VALID,0,VALID,89.236,VALID,0,VALID,23.2347,VALID,145,VALID,0.634375,
2010-10-24, 01:51:05,VALID,998.469,VALID,0,VALID,89.1597,VALID,0,VALID,23.1939,VALID,145,VALID,0.613672,
2010-10-24, 01:52:05,VALID,998.482,VALID,0,VALID,89.0529,VALID,0,VALID,23.1744,VALID,145,VALID,0.422266,
2010-10-24, 01:53:05,VALID,998.462,VALID,0,VALID,89.0911,VALID,0,VALID,23.1744,VALID,145,VALID,0.437109,
2010-10-24, 01:54:05,VALID,998.44,VALID,0,VALID,89.1674,VALID,0,VALID,23.1939,VALID,145,VALID,0.398047,
2010-10-24, 01:55:05,VALID,998.42,VALID,0,VALID,89.1292,VALID,0,VALID,23.1744,VALID,145,VALID,0.409766,
2010-10-24, 01:56:05,VALID,998.43,VALID,0,VALID,88.9766,VALID,0,VALID,23.1744,VALID,145,VALID,0.703125,
2010-10-24, 01:57:05,VALID,998.414,VALID,0,VALID,88.7859,VALID,0,VALID,23.1939,VALID,145,VALID,0.652344,
2010-10-24, 01:58:05,VALID,998.413,VALID,0,VALID,88.6486,VALID,0,VALID,23.1939,VALID,145,VALID,0.885156,
2010-10-24, 01:59:05,VALID,998.422,VALID,0,VALID,88.5951,VALID,0,VALID,23.2134,VALID,145,VALID,0.880859,
2010-10-24, 02:00:05,VALID,998.418,VALID,0,VALID,88.6333,VALID,0,VALID,23.2329,VALID,145,VALID,0.715234,
2010-10-24, 02:01:05,VALID,998.433,VALID,0,VALID,88.7249,VALID,0,VALID,23.2329,VALID,145,VALID,0.871094,
2010-10-24, 02:02:05,VALID,998.431,VALID,0,VALID,88.6638,VALID,0,VALID,23.1939,VALID,145,VALID,0.751953,
2010-10-24, 02:03:05,VALID,998.419,VALID,0,VALID,88.7401,VALID,0,VALID,23.1744,VALID,143,VALID,0.604688,
2010-10-24, 02:04:05,VALID,998.404,VALID,0,VALID,88.824,VALID,0,VALID,23.1549,VALID,139,VALID,0.513281,
2010-10-24, 02:05:05,VALID,998.436,VALID,0,VALID,88.8927,VALID,0,VALID,23.1354,VALID,139,VALID,0.287891,
2010-10-24, 02:06:05,VALID,998.391,VALID,0,VALID,88.9309,VALID,0,VALID,23.0964,VALID,139,VALID,0.355078,
2010-10-24, 02:07:05,VALID,998.418,VALID,0,VALID,89.0148,VALID,0,VALID,23.0573,VALID,139,VALID,0,
2010-10-24, 02:08:05,VALID,998.385,VALID,0,VALID,89.0682,VALID,0,VALID,23.0378,VALID,139,VALID,0.000390625,
2010-10-24, 02:09:05,VALID,998.397,VALID,0,VALID,89.2284,VALID,0,VALID,23.0396,VALID,139,VALID,0.0921875,
2010-10-24, 02:10:05,VALID,998.391,VALID,0,VALID,89.2742,VALID,0,VALID,22.9776,VALID,139,VALID,0.00351562,
2010-10-24, 02:11:05,VALID,998.39,VALID,0,VALID,89.3657,VALID,0,VALID,22.9793,VALID,139,VALID,0.388672,
2010-10-24, 02:12:05,VALID,998.365,VALID,0,VALID,89.3123,VALID,0,VALID,22.9403,VALID,139,VALID,0.303516,
2010-10-24, 02:13:05,VALID,998.39,VALID,0,VALID,89.5565,VALID,0,VALID,22.9208,VALID,109,VALID,0.635156,
2010-10-24, 02:14:05,VALID,998.382,VALID,0,VALID,89.8693,VALID,0,VALID,22.9208,VALID,108,VALID,0.741406,
2010-10-24, 02:15:05,VALID,998.395,VALID,0,VALID,90.0448,VALID,0,VALID,22.9208,VALID,100,VALID,0.863281,
2010-10-24, 02:16:05,VALID,998.373,VALID,0,VALID,90.1516,VALID,0,VALID,22.8995,VALID,100,VALID,0.755859,
2010-10-24, 02:17:05,VALID,998.381,VALID,0,VALID,90.3576,VALID,0,VALID,22.9208,VALID,100,VALID,0.684766,
2010-10-24, 02:18:05,VALID,998.39,VALID,0,VALID,90.4568,VALID,0,VALID,22.9013,VALID,93,VALID,0.657422,
2010-10-24, 02:19:05,VALID,998.407,VALID,0,VALID,90.5102,VALID,0,VALID,22.8818,VALID,93,VALID,0.588672,
2010-10-24, 02:20:05,VALID,998.389,VALID,0,VALID,90.6628,VALID,0,VALID,22.8623,VALID,93,VALID,0.607422,
2010-10-24, 02:21:05,VALID,998.368,VALID,0,VALID,90.8383,VALID,0,VALID,22.8818,VALID,93,VALID,0.457031,
2010-10-24, 02:22:05,VALID,998.357,VALID,0,VALID,90.9069,VALID,0,VALID,22.8623,VALID,93,VALID,0.404687,
2010-10-24, 02:23:05,VALID,998.367,VALID,0,VALID,90.9832,VALID,0,VALID,22.8427,VALID,93,VALID,0.245703,
2010-10-24, 02:24:05,VALID,998.373,VALID,0,VALID,91.0443,VALID,0,VALID,22.8232,VALID,93,VALID,0.196484,
2010-10-24, 02:25:05,VALID,998.415,VALID,0,VALID,91.09,VALID,0,VALID,22.8232,VALID,93,VALID,0.0753906,
2010-10-24, 02:26:05,VALID,998.409,VALID,0,VALID,91.0748,VALID,0,VALID,22.7842,VALID,93,VALID,0.0628906,
2010-10-24, 02:27:05,VALID,998.416,VALID,0,VALID,91.0671,VALID,0,VALID,22.7842,VALID,93,VALID,0,
2010-10-24, 02:28:05,VALID,998.444,VALID,0,VALID,91.0671,VALID,0,VALID,22.786,VALID,93,VALID,0.256641,
2010-10-24, 02:29:05,VALID,998.442,VALID,0,VALID,91.0748,VALID,0,VALID,22.7647,VALID,93,VALID,0.0785156,
2010-10-24, 02:30:05,VALID,998.433,VALID,0,VALID,91.0977,VALID,0,VALID,22.7647,VALID,93,VALID,0,
2010-10-24, 02:31:05,VALID,998.438,VALID,0,VALID,91.0366,VALID,0,VALID,22.7435,VALID,93,VALID,0,
2010-10-24, 02:32:05,VALID,998.425,VALID,0,VALID,91.0366,VALID,0,VALID,22.7842,VALID,93,VALID,0.0109375,
2010-10-24, 02:33:05,VALID,998.407,VALID,0,VALID,91.0061,VALID,0,VALID,22.8037,VALID,93,VALID,0.123047,
2010-10-24, 02:34:05,VALID,998.4,VALID,0,VALID,90.9451,VALID,0,VALID,22.8232,VALID,99,VALID,0.291016,
2010-10-24, 02:35:05,VALID,998.398,VALID,0,VALID,90.7925,VALID,0,VALID,22.8427,VALID,99,VALID,0.232422,
2010-10-24, 02:36:05,VALID,998.377,VALID,0,VALID,90.5865,VALID,0,VALID,22.8818,VALID,169,VALID,0.726172,
2010-10-24, 02:37:05,VALID,998.383,VALID,0,VALID,90.1821,VALID,0,VALID,22.9013,VALID,171,VALID,0.946094,
2010-10-24, 02:38:05,VALID,998.388,VALID,0,VALID,89.8159,VALID,0,VALID,22.9403,VALID,166,VALID,0.851563,
2010-10-24, 02:39:05,VALID,998.338,VALID,0,VALID,89.4497,VALID,0,VALID,22.9988,VALID,141,VALID,1.12617,
2010-10-24, 02:40:05,VALID,998.34,VALID,0,VALID,89.0148,VALID,0,VALID,23.0573,VALID,153,VALID,0.711328,
2010-10-24, 02:41:05,VALID,998.304,VALID,0,VALID,88.7706,VALID,0,VALID,23.0964,VALID,153,VALID,0.88125,
2010-10-24, 02:42:05,VALID,998.322,VALID,0,VALID,88.6028,VALID,0,VALID,23.1159,VALID,145,VALID,1.13711,
2010-10-24, 02:43:05,VALID,998.311,VALID,0,VALID,88.4349,VALID,0,VALID,23.1549,VALID,131,VALID,1.1207,
2010-10-24, 02:44:05,VALID,998.301,VALID,0,VALID,88.3205,VALID,0,VALID,23.1744,VALID,131,VALID,0.661328,
2010-10-24, 02:45:05,VALID,998.291,VALID,0,VALID,88.2594,VALID,0,VALID,23.1744,VALID,131,VALID,0.819922,
2010-10-24, 02:46:05,VALID,998.275,VALID,0,VALID,88.2213,VALID,0,VALID,23.1549,VALID,131,VALID,0.791797,
2010-10-24, 02:47:05,VALID,998.264,VALID,0,VALID,88.3205,VALID,0,VALID,23.1566,VALID,131,VALID,0.683984,
2010-10-24, 02:48:05,VALID,998.264,VALID,0,VALID,88.3968,VALID,0,VALID,23.1159,VALID,131,VALID,0.589453,
2010-10-24, 02:49:05,VALID,998.255,VALID,0,VALID,88.5036,VALID,0,VALID,23.1371,VALID,131,VALID,0.554297,
2010-10-24, 02:50:05,VALID,998.216,VALID,0,VALID,88.6638,VALID,0,VALID,23.0964,VALID,131,VALID,0.471484,
2010-10-24, 02:51:05,VALID,998.244,VALID,0,VALID,88.7706,VALID,0,VALID,23.0769,VALID,131,VALID,0.459375,
2010-10-24, 02:52:05,VALID,998.232,VALID,0,VALID,88.8698,VALID,0,VALID,23.0573,VALID,131,VALID,0.289844,
2010-10-24, 02:53:05,VALID,998.259,VALID,0,VALID,88.9156,VALID,0,VALID,23.0556,VALID,131,VALID,0.129297,
2010-10-24, 02:54:05,VALID,998.324,VALID,0,VALID,88.8469,VALID,0,VALID,23.0378,VALID,131,VALID,0,
2010-10-24, 02:55:05,VALID,998.303,VALID,0,VALID,88.908,VALID,0,VALID,23.0396,VALID,131,VALID,0,
2010-10-24, 02:56:05,VALID,998.319,VALID,0,VALID,89.1597,VALID,0,VALID,22.9988,VALID,131,VALID,0.199609,
2010-10-24, 02:57:05,VALID,998.279,VALID,0,VALID,89.4115,VALID,0,VALID,23.0201,VALID,131,VALID,0.401563,
2010-10-24, 02:58:05,VALID,998.276,VALID,0,VALID,89.6404,VALID,0,VALID,22.9988,VALID,131,VALID,0.601563,
2010-10-24, 02:59:05,VALID,998.223,VALID,0,VALID,89.8617,VALID,0,VALID,23.0183,VALID,131,VALID,0.578125,
2010-10-24, 03:00:05,VALID,998.226,VALID,0,VALID,90.0143,VALID,0,VALID,23.0183,VALID,131,VALID,0.460938,
2010-10-24, 03:01:05,VALID,998.198,VALID,0,VALID,90.0066,VALID,0,VALID,23.0378,VALID,131,VALID,0.509766,
2010-10-24, 03:02:05,VALID,998.211,VALID,0,VALID,89.999,VALID,0,VALID,23.0591,VALID,131,VALID,0.445703,
2010-10-24, 03:03:05,VALID,998.169,VALID,0,VALID,90.0829,VALID,0,VALID,23.0573,VALID,131,VALID,0.474219,
2010-10-24, 03:04:05,VALID,998.184,VALID,0,VALID,90.1592,VALID,0,VALID,23.0591,VALID,131,VALID,0.269531,
2010-10-24, 03:05:05,VALID,998.2,VALID,0,VALID,90.144,VALID,0,VALID,23.0573,VALID,131,VALID,0.302734,
2010-10-24, 03:06:05,VALID,998.186,VALID,0,VALID,90.0982,VALID,0,VALID,23.0573,VALID,131,VALID,0.234766,
2010-10-24, 03:07:05,VALID,998.16,VALID,0,VALID,90.0448,VALID,0,VALID,23.0573,VALID,131,VALID,0.1875,
2010-10-24, 03:08:05,VALID,998.132,VALID,0,VALID,90.0753,VALID,0,VALID,23.0573,VALID,131,VALID,0.199219,
2010-10-24, 03:09:05,VALID,998.166,VALID,0,VALID,90.0906,VALID,0,VALID,23.0573,VALID,131,VALID,0.159375,
2010-10-24, 03:10:05,VALID,998.13,VALID,0,VALID,90.1058,VALID,0,VALID,23.0769,VALID,131,VALID,0.257422,
2010-10-24, 03:11:05,VALID,998.135,VALID,0,VALID,89.9914,VALID,0,VALID,23.0769,VALID,131,VALID,0.345313,
2010-10-24, 03:12:05,VALID,998.116,VALID,0,VALID,89.938,VALID,0,VALID,23.0769,VALID,131,VALID,0.201562,
2010-10-24, 03:13:05,VALID,998.118,VALID,0,VALID,89.8617,VALID,0,VALID,23.0573,VALID,131,VALID,0.2,
2010-10-24, 03:14:05,VALID,998.111,VALID,0,VALID,89.854,VALID,0,VALID,23.0786,VALID,131,VALID,0.291016,
2010-10-24, 03:15:05,VALID,998.07,VALID,0,VALID,89.5641,VALID,0,VALID,23.0769,VALID,131,VALID,0.458984,
2010-10-24, 03:16:05,VALID,998.07,VALID,0,VALID,89.0453,VALID,0,VALID,23.0769,VALID,131,VALID,0.496875,
2010-10-24, 03:17:05,VALID,998.058,VALID,0,VALID,88.6714,VALID,0,VALID,23.0964,VALID,160,VALID,0.569531,
2010-10-24, 03:18:05,VALID,998.042,VALID,0,VALID,88.3052,VALID,0,VALID,23.0964,VALID,147,VALID,0.975391,
2010-10-24, 03:19:05,VALID,998.068,VALID,0,VALID,88.1145,VALID,0,VALID,23.1176,VALID,142,VALID,0.613281,
2010-10-24, 03:20:05,VALID,998.056,VALID,0,VALID,88,VALID,0,VALID,23.1159,VALID,142,VALID,0.574219,
2010-10-24, 03:21:05,VALID,998.034,VALID,0,VALID,88.0382,VALID,0,VALID,23.0964,VALID,142,VALID,0.371094,
2010-10-24, 03:22:05,VALID,998.054,VALID,0,VALID,88,VALID,0,VALID,23.1354,VALID,142,VALID,0.282031,
2010-10-24, 03:23:05,VALID,998.045,VALID,0,VALID,87.939,VALID,0,VALID,23.1354,VALID,142,VALID,0.420703,
2010-10-24, 03:24:05,VALID,998.055,VALID,0,VALID,87.9009,VALID,0,VALID,23.1762,VALID,142,VALID,0.474219,
2010-10-24, 03:25:05,VALID,998.072,VALID,0,VALID,87.8169,VALID,0,VALID,23.1744,VALID,142,VALID,0.272656,
2010-10-24, 03:26:05,VALID,998.066,VALID,0,VALID,87.6872,VALID,0,VALID,23.2152,VALID,142,VALID,0.573047,
2010-10-24, 03:27:05,VALID,998.067,VALID,0,VALID,87.588,VALID,0,VALID,23.2347,VALID,142,VALID,0.558203,
2010-10-24, 03:28:05,VALID,998.095,VALID,0,VALID,87.5117,VALID,0,VALID,23.2329,VALID,142,VALID,0.473828,
2010-10-24, 03:29:05,VALID,998.091,VALID,0,VALID,87.3592,VALID,0,VALID,23.2524,VALID,142,VALID,0.686328,
2010-10-24, 03:30:05,VALID,998.102,VALID,0,VALID,87.2142,VALID,0,VALID,23.2932,VALID,138,VALID,0.691406,
2010-10-24, 03:31:05,VALID,998.099,VALID,0,VALID,87.0311,VALID,0,VALID,23.2915,VALID,112,VALID,0.874609,
2010-10-24, 03:32:05,VALID,998.091,VALID,0,VALID,86.9548,VALID,0,VALID,23.2915,VALID,112,VALID,0.746484,
2010-10-24, 03:33:05,VALID,998.074,VALID,0,VALID,87.0234,VALID,0,VALID,23.311,VALID,99,VALID,0.997656,
2010-10-24, 03:34:05,VALID,998.078,VALID,0,VALID,87.0006,VALID,0,VALID,23.3323,VALID,91,VALID,1.08672,
2010-10-24, 03:35:05,VALID,998.058,VALID,0,VALID,87.054,VALID,0,VALID,23.2932,VALID,91,VALID,1.12852,
2010-10-24, 03:36:05,VALID,998.067,VALID,0,VALID,87.2142,VALID,0,VALID,23.2542,VALID,93,VALID,1.08086,
2010-10-24, 03:37:05,VALID,998.058,VALID,0,VALID,87.5117,VALID,0,VALID,23.1957,VALID,92,VALID,1.1,
2010-10-24, 03:38:05,VALID,998.065,VALID,0,VALID,87.8627,VALID,0,VALID,23.1159,VALID,91,VALID,0.936719,
2010-10-24, 03:39:05,VALID,998.052,VALID,0,VALID,88.2518,VALID,0,VALID,23.0591,VALID,73,VALID,0.924609,
2010-10-24, 03:40:05,VALID,998.049,VALID,0,VALID,88.557,VALID,0,VALID,22.9811,VALID,73,VALID,0.701953,
2010-10-24, 03:41:05,VALID,998.041,VALID,0,VALID,88.9461,VALID,0,VALID,22.942,VALID,73,VALID,0.665234,
2010-10-24, 03:42:05,VALID,998.049,VALID,0,VALID,89.1826,VALID,0,VALID,22.8445,VALID,73,VALID,0.372656,
2010-10-24, 03:43:05,VALID,998.06,VALID,0,VALID,89.3886,VALID,0,VALID,22.786,VALID,73,VALID,0.237109,
2010-10-24, 03:44:05,VALID,998.031,VALID,0,VALID,89.587,VALID,0,VALID,22.7274,VALID,73,VALID,0.260938,
2010-10-24, 03:45:05,VALID,997.998,VALID,0,VALID,89.8235,VALID,0,VALID,22.6672,VALID,73,VALID,0.420312,
2010-10-24, 03:46:05,VALID,998.002,VALID,0,VALID,90.1745,VALID,0,VALID,22.6494,VALID,73,VALID,0.514844,